When you browse on this site, cookies collect data to enhance your experience and personalize the content and advertising you see.
Visit our Privacy Policy to learn more. By continuing to use the site, you agree to this use of cookies and data.
  • In Sweden
  • List of Countries
  • For 7 days
  • Water Temperature
  • Satellite Maps
  • Weather Map
  • Weather Widgets
  • user-avatar
    Login

    Hourly Weather Laski

    Today, 20 February, Wednesday

    Time Temperature Precipitation Wind Pressure Humidity
    00:00 +3°C° 0 mm 5 mps 746 mmHg 88%
    01:00 +2°C° 0 mm 5 mps 746 mmHg 89%
    02:00 +2°C° 0 mm 5 mps 746 mmHg 89%
    03:00 +2°C° 0 mm 5 mps 746 mmHg 89%
    04:00 +1°C° 0 mm 5 mps 747 mmHg 90%
    05:00 +1°C° 0 mm 5 mps 747 mmHg 90%
    06:00 +1°C° 0 mm 5 mps 747 mmHg 90%
    07:00 +1°C° 0 mm 5 mps 747 mmHg 91%
    08:00 +2°C° 0 mm 6 mps 747 mmHg 88%
    09:00 +2°C° 0 mm 6 mps 748 mmHg 85%
    10:00 +2°C° 0 mm 6 mps 748 mmHg 82%
    11:00 +3°C° 0 mm 6 mps 748 mmHg 80%
    12:00 +3°C° 0 mm 6 mps 749 mmHg 78%
    13:00 +3°C° 0 mm 6 mps 749 mmHg 77%
    14:00 +3°C° 0 mm 6 mps 749 mmHg 76%
    15:00 +3°C° 0 mm 6 mps 749 mmHg 75%
    16:00 +3°C° 0 mm 5 mps 749 mmHg 74%
    17:00 +3°C° 0 mm 5 mps 750 mmHg 75%
    18:00 +4°C° 0 mm 4 mps 750 mmHg 77%
    19:00 +4°C° 0 mm 4 mps 750 mmHg 79%
    20:00 +4°C° 0 mm 4 mps 751 mmHg 81%
    21:00 +4°C° 0 mm 3 mps 751 mmHg 82%
    22:00 +4°C° 0 mm 3 mps 751 mmHg 84%
    23:00 +3°C° 0 mm 3 mps 751 mmHg 85%

    Tomorrow, 21 February, Thursday

    Time Temperature Precipitation Wind Pressure Humidity
    00:00 +3°C° 0 mm 3 mps 751 mmHg 87%
    01:00 +3°C° 0 mm 3 mps 752 mmHg 88%
    02:00 +3°C° 0 mm 3 mps 752 mmHg 88%
    03:00 +3°C° 0 mm 4 mps 751 mmHg 88%
    04:00 +3°C° 0 mm 4 mps 751 mmHg 88%
    05:00 +3°C° 0 mm 4 mps 751 mmHg 86%
    06:00 +3°C° 0 mm 4 mps 751 mmHg 85%
    07:00 +3°C° 0 mm 4 mps 751 mmHg 83%
    08:00 +2°C° 0.1 mm 5 mps 751 mmHg 81%
    09:00 +3°C° 0.1 mm 5 mps 751 mmHg 79%
    10:00 +3°C° 0.1 mm 6 mps 751 mmHg 77%
    11:00 +3°C° 0.6 mm 6 mps 750 mmHg 78%
    12:00 +4°C° 0.6 mm 7 mps 750 mmHg 79%
    13:00 +4°C° 0.6 mm 7 mps 750 mmHg 79%
    14:00 +4°C° 0.4 mm 7 mps 749 mmHg 80%
    15:00 +4°C° 0.4 mm 7 mps 749 mmHg 80%
    16:00 +4°C° 0.4 mm 6 mps 749 mmHg 80%
    17:00 +4°C° 0.6 mm 6 mps 749 mmHg 83%
    18:00 +4°C° 0.6 mm 6 mps 749 mmHg 85%
    19:00 +4°C° 0.6 mm 6 mps 749 mmHg 88%
    20:00 +4°C° 0.3 mm 6 mps 749 mmHg 89%
    21:00 +5°C° 0.3 mm 6 mps 749 mmHg 90%
    22:00 +5°C° 0.3 mm 6 mps 749 mmHg 91%
    23:00 +5°C° 0.2 mm 6 mps 749 mmHg 91%

    Day after tomorrow, 22 February, Friday

    Time Temperature Precipitation Wind Pressure Humidity
    00:00 +5°C° 0.2 mm 6 mps 749 mmHg 91%
    01:00 +5°C° 0.2 mm 7 mps 749 mmHg 91%
    02:00 +5°C° 0.8 mm 7 mps 749 mmHg 90%
    03:00 +5°C° 0.8 mm 7 mps 749 mmHg 90%
    04:00 +4°C° 0.8 mm 7 mps 749 mmHg 89%
    05:00 +3°C° 0.3 mm 7 mps 750 mmHg 87%
    06:00 0°C° 0.3 mm 7 mps 751 mmHg 84%
    07:00 -1°C° 0.3 mm 7 mps 752 mmHg 81%
    08:00 -2°C° 0 mm 7 mps 754 mmHg 75%
    09:00 -2°C° 0 mm 6 mps 755 mmHg 68%
    10:00 -2°C° 0 mm 6 mps 756 mmHg 61%
    11:00 -2°C° 0 mm 6 mps 757 mmHg 58%
    12:00 -2°C° 0 mm 6 mps 758 mmHg 55%
    13:00 0°C° 0 mm 5 mps 758 mmHg 52%
    14:00 -1°C° 0 mm 5 mps 759 mmHg 51%
    15:00 -1°C° 0 mm 5 mps 759 mmHg 49%
    16:00 -1°C° 0 mm 5 mps 760 mmHg 48%
    17:00 -2°C° 0 mm 5 mps 760 mmHg 50%
    18:00 -4°C° 0 mm 5 mps 761 mmHg 52%
    19:00 -5°C° 0 mm 5 mps 762 mmHg 54%
    20:00 -5°C° 0 mm 5 mps 762 mmHg 53%
    21:00 -4°C° 0 mm 4 mps 763 mmHg 51%
    22:00 -4°C° 0 mm 4 mps 763 mmHg 50%
    23:00 -4°C° 0 mm 4 mps 764 mmHg 47%

    23 February, Saturday

    Time Temperature Precipitation Wind Pressure Humidity
    00:00 -5°C° 0 mm 4 mps 764 mmHg 45%
    01:00 -5°C° 0 mm 3 mps 764 mmHg 43%
    02:00 -5°C° 0 mm 3 mps 764 mmHg 42%
    03:00 -4°C° 0 mm 2 mps 764 mmHg 41%
    04:00 -4°C° 0 mm 2 mps 764 mmHg 40%
    05:00 -4°C° 0 mm 2 mps 764 mmHg 40%
    06:00 -4°C° 0 mm 2 mps 765 mmHg 40%
    07:00 -2°C° 0 mm 1 mps 765 mmHg 40%
    08:00 -1°C° 0 mm 1 mps 765 mmHg 37%
    09:00 -1°C° 0 mm 1 mps 765 mmHg 34%
    10:00 0°C° 0 mm 1 mps 765 mmHg 31%
    11:00 +1°C° 0 mm 1 mps 765 mmHg 29%
    12:00 +1°C° 0 mm 1 mps 765 mmHg 27%
    13:00 +1°C° 0 mm 0 mps 764 mmHg 25%
    14:00 +1°C° 0 mm 0 mps 764 mmHg 27%
    15:00 +1°C° 0 mm 0 mps 764 mmHg 30%
    16:00 +1°C° 0 mm 0 mps 763 mmHg 32%
    17:00 0°C° 0 mm 0 mps 763 mmHg 33%
    18:00 +1°C° 0 mm 1 mps 763 mmHg 35%
    19:00 0°C° 0 mm 1 mps 763 mmHg 37%
    20:00 0°C° 0 mm 1 mps 763 mmHg 37%
    21:00 0°C° 0 mm 1 mps 763 mmHg 38%
    22:00 -2°C° 0 mm 2 mps 763 mmHg 38%
    23:00 -2°C° 0 mm 2 mps 763 mmHg 39%

    24 February, Sunday

    Time Temperature Precipitation Wind Pressure Humidity
    00:00 -2°C° 0 mm 2 mps 762 mmHg 39%
    01:00 -2°C° 0 mm 2 mps 762 mmHg 40%
    02:00 -2°C° 0 mm 2 mps 762 mmHg 39%
    03:00 -2°C° 0 mm 2 mps 762 mmHg 38%
    04:00 -1°C° 0 mm 2 mps 761 mmHg 37%
    05:00 -2°C° 0 mm 2 mps 761 mmHg 38%
    06:00 -2°C° 0 mm 2 mps 761 mmHg 39%
    07:00 -2°C° 0 mm 2 mps 761 mmHg 39%
    08:00 -1°C° 0 mm 2 mps 761 mmHg 37%
    09:00 +1°C° 0 mm 2 mps 761 mmHg 36%
    10:00 +2°C° 0 mm 3 mps 760 mmHg 34%
    11:00 +2°C° 0 mm 3 mps 760 mmHg 34%
    12:00 +3°C° 0 mm 3 mps 760 mmHg 35%
    13:00 +4°C° 0 mm 3 mps 759 mmHg 36%
    14:00 +4°C° 0 mm 3 mps 759 mmHg 40%
    15:00 +5°C° 0 mm 2 mps 759 mmHg 45%
    16:00 +5°C° 0 mm 2 mps 759 mmHg 50%
    17:00 +4°C° 0 mm 2 mps 759 mmHg 53%
    18:00 +3°C° 0 mm 2 mps 759 mmHg 55%
    19:00 +3°C° 0 mm 1 mps 759 mmHg 58%
    20:00 +3°C° 0 mm 1 mps 759 mmHg 59%
    21:00 +2°C° 0 mm 1 mps 759 mmHg 60%
    22:00 +2°C° 0 mm 1 mps 759 mmHg 62%
    23:00 +2°C° 0 mm 1 mps 759 mmHg 62%

    25 February, Monday

    Time Temperature Precipitation Wind Pressure Humidity
    00:00 +2°C° 0 mm 1 mps 758 mmHg 62%
    01:00 +2°C° 0 mm 1 mps 758 mmHg 63%
    02:00 +1°C° 0 mm 2 mps 758 mmHg 63%
    03:00 +2°C° 0 mm 2 mps 758 mmHg 63%
    04:00 +2°C° 0 mm 2 mps 758 mmHg 64%
    05:00 +1°C° 0 mm 2 mps 758 mmHg 66%
    06:00 +1°C° 0 mm 2 mps 758 mmHg 69%
    07:00 +1°C° 0 mm 2 mps 758 mmHg 71%
    08:00 +2°C° 0 mm 2 mps 758 mmHg 68%
    09:00 +3°C° 0 mm 3 mps 758 mmHg 64%
    10:00 +4°C° 0 mm 3 mps 758 mmHg 61%
    11:00 +5°C° 0 mm 3 mps 758 mmHg 60%
    12:00 +5°C° 0 mm 3 mps 758 mmHg 60%
    13:00 +7°C° 0 mm 3 mps 758 mmHg 59%
    14:00 +7°C° 0 mm 3 mps 758 mmHg 63%
    15:00 +7°C° 0 mm 3 mps 758 mmHg 67%
    16:00 +6°C° 0 mm 4 mps 758 mmHg 71%
    17:00 +5°C° 0 mm 3 mps 758 mmHg 78%
    18:00 +4°C° 0 mm 3 mps 758 mmHg 84%
    19:00 +3°C° 0 mm 3 mps 758 mmHg 91%
    20:00 +4°C° 0 mm 2 mps 758 mmHg 91%
    21:00 +3°C° 0 mm 2 mps 758 mmHg 92%
    22:00 +3°C° 0 mm 2 mps 758 mmHg 93%
    23:00 +3°C° 0 mm 2 mps 758 mmHg 93%
    Show more